Regional Weather Roundup
Issued by NWS

Home | Current Version | Previous Version | Text Only | Print | Product List | Glossary Off
Versions: 1 2 3 4 5 6 7 8 9 10 11 12 13 14 15 16 17 18 19 20 21 22 23 24 25 26 27 28 29 30 31 32 33 34 35 36 37 38 39 40 41 42 43 44 45 46 47 48 49 50

000
ASUS43 KMKX 190400
RWRWI

WISCONSIN REGIONAL WEATHER ROUNDUP
NATIONAL WEATHER SERVICE MILWAUKEE/SULLIVAN WI
1000 PM CST SUN FEB 18 2018

NOTE: "FAIR" INDICATES FEW OR NO CLOUDS BELOW 12,000 FEET WITH NO
SIGNIFICANT WEATHER AND/OR OBSTRUCTIONS TO VISIBILITY.

WIZ001-002-006>008-014>016-023>028-190500-
NORTHWEST WISCONSIN

CITY           SKY/WX    TMP DP  RH WIND       PRES   REMARKS
SUPERIOR ARPT  CLOUDY    23  20  88 NE13G18   29.84R WCI  11
ASHLAND        LGT SNOW  24  23  96 N13       29.82R FOG     WCI  12
HAYWARD        CLOUDY    27  22  81 N12       29.74R WCI  17
SIREN          CLOUDY    25  21  84 NE10G16   29.74F WCI  15
CUMBERLAND     CLOUDY    34  28  80 S5        29.70S WCI  30
RICE LAKE      CLOUDY    35  28  76 E3        29.72S
CHETEK         CLOUDY    35  27  71 SE5       29.72S WCI  31
LADYSMITH      CLOUDY    35  25  67 SE5       29.75R WCI  31
EAU CLAIRE     NOT AVBL
MENOMONIE      CLOUDY    38  28  67 SE5       29.71S WCI  35
NEW RICHMOND   FAIR      32  27  81 SE5       29.69F WCI  27
OSCEOLA        FAIR      34  28  80 NW9       29.73R WCI  26
$$

WIZ003>005-009-010-017-018-190500-
NORTH CENTRAL WISCONSIN

CITY           SKY/WX    TMP DP  RH WIND       PRES   REMARKS
MANITOWISH WTR CLOUDY    32  23  69 S6        29.73R WCI  26
ARBOR VITAE    CLOUDY    34  26  71 S8        29.74R WCI  27
WOODRUFF       CLOUDY    34  26  71 S8        29.74R WCI  27
RHINELANDER    CLOUDY    33  24  69 S12       29.76R WCI  24
EAGLE RIVER    CLOUDY    32  22  65 SW6       29.75R WCI  26
LAND O LAKES   CLOUDY    33  22  66 SW3       29.76R
PHILLIPS       CLOUDY    33  24  70 S8        29.73R WCI  26
TOMAHAWK       CLOUDY    32  23  71 S3        29.76R
MEDFORD        CLOUDY    32  26  76 S14       29.74R WCI  22
MERRILL        CLOUDY    32  24  73 S6        29.78S WCI  26
$$

WIZ029-030-035-036-043>047-190500-
CENTRAL WISCONSIN

CITY           SKY/WX    TMP DP  RH WIND       PRES   REMARKS
WAUSAU         CLOUDY    30  23  75 S7        29.76F WCI  23
MOSINEE        MOCLDY    30  25  80 SE8       29.79S WCI  23
MARSHFIELD     MOCLDY    29  23  78 S9        29.75S WCI  20
STEVENS POINT  FAIR      30  25  81 SE5       29.80F WCI  25
WAUPACA        CLOUDY    37  28  71 S7        29.84S WCI  31
WAUTOMA        CLOUDY    34  28  79 SE5       29.83F WCI  30
WISC RAPIDS    FAIR      33  25  72 S7        29.79F WCI  27
CAMP DOUGLAS   FAIR      37  29  75 S14       29.76F WCI  28
$$

WIZ011>013-019>022-031-037>040-048>050-190500-
NORTHEAST WISCONSIN

CITY           SKY/WX    TMP DP  RH WIND       PRES   REMARKS
ANTIGO         CLOUDY    29  23  78 S10       29.78F WCI  20
SHAWANO        CLOUDY    35  26  70 CALM      29.84S
OCONTO         CLOUDY    33  26  75 S5        29.87S WCI  29
STURGEON BAY   CLOUDY    35  29  78 S14G21    29.88S WCI  26
GREEN BAY      CLOUDY    35  26  69 S10       29.86F WCI  27
MANITOWOC      CLOUDY    35  30  82 S17G23    29.89F WCI  25
APPLETON       CLOUDY    30  23  74 S7        29.83F WCI  23
CLINTONVILLE   CLOUDY    36  26  69 S8        29.83F WCI  29
OSHKOSH        CLOUDY    33  27  78 S9        29.85F WCI  25
$$

WIZ032>034-041-042-053>061-190500-
SOUTHWEST WISCONSIN

CITY           SKY/WX    TMP DP  RH WIND       PRES   REMARKS
LA CROSSE      MOCLDY    37  30  75 S13       29.74F WCI  29
SPARTA         FAIR      36  30  77 S5        29.77S WCI  32
VIROQUA        FAIR      35  31  85 S17       29.75F WCI  25
BOSCOBEL       FAIR      40  29  64 S6        29.80F
PRAIRIE DU CHI FAIR      40  28  62 SE6       29.77F
PLATTEVILLE    MOCLDY    38  32  79 S10       29.82S WCI  31
$$

WIZ056-057-062-063-064-067-068-190500-
SOUTH CENTRAL WISCONSIN

CITY           SKY/WX    TMP DP  RH WIND       PRES   REMARKS
REEDSBURG      CLOUDY    37  30  75 S12G17    29.80F WCI  30
BARABOO/DELLS  MOCLDY    34  29  82 S10       29.80F WCI  26
LONE ROCK      NOT AVBL
MINERAL POINT  FAIR      36  34  93 SE10      29.80F WCI  28
MADISON        MOCLDY    37  31  78 S14       29.85S WCI  28
MIDDLETON      CLOUDY    38  32  77 S8        29.83F WCI  33
WATERTOWN      CLOUDY    37  31  78 S12G20    29.86S WCI  30
MONROE         CLOUDY    37  32  81 S16G22    29.83F WCI  28
JANESVILLE     MOCLDY    39  32  75 S12G20    29.86R WCI  32
$$

WIZ051-052-058>065-066-070>072-190500-
SOUTHEAST WISCONSIN

CITY           SKY/WX    TMP DP  RH WIND       PRES   REMARKS
MILWAUKEE      MOCLDY    36  31  82 S8        29.89R WCI  30
WAUKESHA       MOCLDY    34  28  80 S6        29.89R WCI  29
MILWAUKEE/TIMM FAIR      34  28  80 S5        29.90R WCI  30
RACINE         FAIR      36  31  82 S18G30    29.89F WCI  26
BURLINGTON     FAIR      37  29  72 S10       29.89R WCI  30
KENOSHA        FAIR      39  29  67 S15G26    29.87F WCI  31
FOND DU LAC    CLOUDY    34  26  72 S10       29.85F WCI  26
SHEBOYGAN      CLOUDY    34  31  88 S17       29.88S WCI  23
WEST BEND      MOCLDY    32  30  93 S5        29.87S WCI  27
JUNEAU         MOCLDY    36  29  76 S10       29.87S WCI  28
$$

LSZ147-162-190500-
LAKE SUPERIOR

STATION/POSITION TIME  TEMP    WIND        PRES    WAVE
                       AIR SEA DIR/SP/G            HT/PER
                 (UTC) (F)     (DEG/KT/KT) (MB)    (FT/S)
DEVILS ISLAND    0300   24      30/ 24/ 27 1010.9R
SAXON HARBOR     0340   27      30/ 13/ 15 1008.8R
$$

LMZ867-665-643>646-190500-
LAKE MICHIGAN

STATION/POSITION TIME  TEMP    WIND        PRES    WAVE
                       AIR SEA DIR/SP/G            HT/PER
                 (UTC) (F)     (DEG/KT/KT) (MB)    (FT/S)
NORTHPORT PIER   0340   36                 1011.9S
KEWAUNEE LAKESHO 0324   36     200/ 16/ 24 1011.8
SHEBOYGAN LAKESH 0300   35     190/ 29/ 32 1012.0R
PORT WASHINGTON  0340   34     190/ 13/ 18 1013.5R
MILWAUKEE LAKESH 0330   37     190/ 12/ 14   N/A
KENOSHA   LAKESH 0300   35     170/ 18/ 24 1012.2
$$

TC  - TEMPERATURE IN CELSIUS
VSB - VISIBILITY IN STATUTE MILES
WCI - WIND CHILL INDEX
HX  - HEAT INDEX





USA.gov is the U.S. government's official web portal to all federal, state and local government web resources and services.